Время (UTC), дата Ветер
(°,м/с) 
Видим.   Явления Облачность Т
(°С)
Тd
(°С)
f(%) Тe
(°С)
Pmin
(гПа)
dP
(гПа)
Po
(мм)
O2
(г/м3)
Тmin Tmax R s Состояние
почвы
00 01.09.12 тихо ()   3000 м  местами туман поземный  ясно 
+10.5 +9.2 92 +11  1020.8  0.2  759  293           
03 01.09.12 060 (СВ) 10 км    ясно 
+9.8 +7.2 84 +9  1021.9  1.2  760  294           
06 01.09.12 070 (В) 10 км    4/0 средняя, верхняя 
[Ac trans|Ci fib]
+17.5 +8.7 56 +18  1022.5  0.7  760  286  +9.1         
09 01.09.12 360 (С) 10 км    3/3 1000 м 
[Cu med, cong]
+20.7 +7.2 42 +21  1022.3  -0.1  760  284           
12 01.09.12 040 (СВ) 10 км    ясно 
+22.6 +8 39 +23  1021.8  -0.4  760  281           
15 01.09.12 110 (В) 10 км    3/0 верхняя 
[Ci fib]
+21.1 +7.2 41 +21  1021.8  760  283           
18 01.09.12 тихо ()   10 км    5/0 верхняя 
[Ci fib]
+15.5 +8.8 64 +16  1023.3  1.3  761  289    +22.8       
21 01.09.12 350 (С) 10 км    5/0 верхняя 
[Ci fib]
+12.3 +9.4 82 +13  1023.9  0.5  761  292           
00 02.09.12 030 (СВ) 10 км    6/0 верхняя 
[Ci fib]
+14.6 +5.2 53 +14  1024.4  0.4  762  290           
03 02.09.12 060 (СВ) 10 км    3/0 верхняя 
[Ci fib]
+11.2 +5.3 67 +10  1025.8  1.3  763  294           
06 02.09.12 090 (В) 10 км    ясно 
+17.9 +6.6 48 +18  1026.4  0.7  763  288  +10.4         
09 02.09.12 020 (С) 10 км    ясно 
+20.6 +3.8 33 +21  1025.9  -0.3  763  285           
12 02.09.12 020 (С) 10 км    4/0 верхняя 
[Ci fib]
+22 +2.7 28 +22  1025  -0.9  762  284           
15 02.09.12 090 (В) 10 км    6/0 верхняя 
[Ci fib]
+20.4 +2.3 30 +20  1024.7  -0.3  762  285           
18 02.09.12 070 (В) 10 км    5/0 средняя, верхняя 
[Ac trans|Ci fib]
+13.3 +5.2 58 +13  1025.3  0.4  762  292    +22.2       
21 02.09.12 060 (СВ) 10 км    3/0 средняя 
[Ac trans]
+13.3 +4.6 56 +13  1024.8  -0.5  762  292           
00 03.09.12 060 (СВ) 10 км    ясно 
+12.7 +4.9 59 +13  1024.3  -0.5  761  292           
03 03.09.12 050 (СВ) 10 км    1/0 средняя 
[Ac trans]
+11.1 +4.9 66 +11  1024.3  -0.1  761  294           
06 03.09.12 090 (В) 10 км    ясно 
+18.9 +4.8 39 +20  1023.6  -0.3  761  286  +10.6         
09 03.09.12 150 (ЮВ) 10 км    ясно 
+22.4 +3.6 29 +22  1022  -1.4  760  282           
12 03.09.12 тихо ()   10 км    ясно 
+24.3 +2.1 23 +24  1020.5  -1.4  759  280           
15 03.09.12 110 (В) 10 км    1/0 верхняя 
[Ci fib]
+23.3 +5.2 31 +23  1019.4  -1  758  281           
18 03.09.12 тихо ()   10 км    4/0 верхняя 
[Ci fib]
+15.9 +8.8 63 +16  1019.6  758  287    +25.1       
21 03.09.12 330 (СЗ) 10 км    3/0 верхняя 
[Ci fib]
+14.4 +8 65 +15  1019.2  -0.3  758  289           
00 04.09.12 340 (С) 10 км    ясно 
+13.6 +6.6 63 +15  1019.1  -0.1  758  290           
03 04.09.12 тихо ()   10 км    3/0 средняя, верхняя 
[Ac trans|Ci fib]
+13.3 +7.7 69 +13  1018.4  -0.6  757  290           
06 04.09.12 270 (З) 10 км    3/0 верхняя 
[Ci fib]
+22.6 +8.1 39 +23  1018  -0.1  757  280  +12.2         
09 04.09.12 200 (Ю) 10 км    3/0 верхняя 
[Ci fib]
+26.3 +6.8 29 +26  1016.8  -1.1  756  277           
12 04.09.12 100 (В) 10 км    1/0 верхняя 
[Ci fib]
+27.3 +6 26 +27  1015.1  -1.5  755  276           
15 04.09.12 220 (ЮЗ) 10 км    3/0 верхняя 
[Ci fib]
+25.4 +7.4 32 +25  1014  -1.2  754  277           
18 04.09.12 300 (СЗ) 10 км    6/0 средняя, верхняя 
[Ac trans|Ci fib]
+19 +10.3 57 +21  1013.7  -0.4  754  282    +27.4       
21 04.09.12 290 (З) 10 км    8/0 средняя 
[Ac trans]
+21.1 +7.3 41 +21  1012.3  -1.3  753  280           
00 05.09.12 360 (С) 4{15}  10 км  слаб. ливневой дождь  6/4 1000 м кучево-дожд., средняя 
[Cb calv|Ac trans]
+17.3 +13.1 76 +23  1011.6  -0.8  752  282           
03 05.09.12 310 (СЗ) 10 км  {ливн. осадки}  6/0 средняя 
[Ac trans]
+16.4 +13.2 81 +22  1012.7  753  284           
06 05.09.12 320 (СЗ) 10 км  {ливн. осадки}  3/0 средняя 
[Ac trans]
+19.5 +12.8 65 +25  1013.4  0.8  754  281  +16    0.0     
09 05.09.12 310 (СЗ) 10 км    4/4 1200 м 
[Cu med, cong]
+23 +11 47 +25  1013.4  0.1  754  278           
12 05.09.12 300 (СЗ) 10 км    6/6 1300 м 
[Cu med, cong]
+24.1 +7.2 34 +24  1013.6  0.1  754  278           
15 05.09.12 340 (С) 10 км    3/0 средняя 
[Ac trans]
+22.8 +7.1 36 +23  1014.4  0.7  754  279           
18 05.09.12 340 (С) 10 км    ясно 
+18 +7.5 50 +19  1016.5  1.9  756  284    +24.7       
21 05.09.12 360 (С) 10 км    ясно 
+16.6 +7.2 54 +17  1017.4  0.8  756  286           
00 06.09.12 030 (СВ) 10 км    ясно 
+15.4 +7.3 58 +16  1017.6  0.1  757  287           
03 06.09.12 тихо ()   10 км    1/0 средняя 
[Ac trans]
+12.2 +7.2 71 +12  1018.1  0.4  757  291           
06 06.09.12 080 (В) 10 км    1/0 средняя 
[Ac trans]
+20 +10.4 54 +22  1018.1  0.1  757  282  +11.2         
09 06.09.12 100 (В) 10 км    1/0 средняя 
[Ac trans]
+22.1 +8.9 43 +22  1016.9  -1.1  756  280           
12 06.09.12 120 (ЮВ) 10 км    ясно 
+23.8 +7.8 36 +24  1015  -1.7  755  278           
15 06.09.12 050 (СВ) 10 км    ясно 
+23.3 +8.8 40 +23  1014.1  -0.9  754  278           
18 06.09.12 тихо ()   10 км    ясно 
+17.5 +9.2 58 +18  1014  -0.3  754  284    +24.6       
21 06.09.12 040 (СВ) 10 км    ясно 
+15.8 +8 60 +17  1013.1  -0.8  753  286           
00 07.09.12 080 (В) 10 км    ясно 
+13.7 +8 68 +14  1012.2  -0.9  752  287           
03 07.09.12 110 (В) 10 км    3/0 верхняя 
[Ci fib]
+13.1 +8 71 +13  1011.6  -0.6  752  288           
06 07.09.12 210 (ЮЗ) 10 км    8/0 средняя, верхняя 
[Ac trans|Ci fib]
+20.7 +9.9 50 +22  1010.8  -0.5  752  280  +13.1         
09 07.09.12 230 (ЮЗ) 10 км    9/1 600 м средняя, верхняя 
[Cu hum|Ac trans|Ci]
+24.9 +8.4 35 +25  1009.7  -0.9  751  276           
12 07.09.12 260 (З) 10 км    9/4 1000 м кучево-дожд., средняя, верхняя 
[Cb calv|Ac trans|Ci]
+24.6 +7.4 33 +25  1009.1  -0.6  750  276           
15 07.09.12 290 (З) 10 км  {ливн. осадки}  9/1 1000 м кучево-дожд., средняя 
[Cb calv|Ac trans]
+19.1 +13.3 69 +25  1010.1  0.8  751  280           
18 07.09.12 310 (СЗ) 10 км  {ливн. осадки}  4/0 средняя 
[Ac trans]
+16.2 +11.8 75 +21  1012.4  2.1  753  284    +26.1  0.0     
21 07.09.12 300 (СЗ) 10 км    4/0 верхняя 
[Ci fib]
+13.9 +10.3 79 +15  1013.4  0.9  753  287           
00 08.09.12 300 (СЗ) 10 км    3/0 верхняя 
[Ci fib]
+13.1 +10 81 +14  1013.8  0.3  754  288           
03 08.09.12 260 (З) 4000 м  местами туман поземный  3/0 средняя, верхняя 
[Ac trans|Ci fib]
+10.3 +8.7 90 +11  1014.6  0.6  754  291           
06 08.09.12 240 (ЮЗ) 10 км    4/0 средняя, верхняя 
[Ac trans|Ci fib]
+16.5 +8.9 61 +17  1015.3  0.9  755  285  +10.1         
09 08.09.12 320 (СЗ) 10 км    6/5 1200 м верхняя 
[Cu med, cong|Ci fib]
+18.7 +5.5 42 +19  1015.1  -0.1  755  284           
12 08.09.12 270 (З) 10 км    6/6 1200 м 
[Cu med, cong]
+20.6 +4.9 36 +21  1014.3  -0.7  754  282           
15 08.09.12 260 (З) 10 км    8/1 1000 м кучево-дожд., средняя 
[Cb calv|Ac trans]
+18.6 +8 50 +19  1014.7  0.3  754  283           
18 08.09.12 300 (СЗ) 10 км    8/0 средняя 
[Ac trans]
+17.6 +7.4 51 +18  1015.7  755  285    +21       
21 08.09.12 340 (С) 10 км    5/0 средняя 
[Ac trans]
+14.9 +6.3 56 +16  1016.2  0.3  755  288           
00 09.09.12 330 (СЗ) 10 км    3/0 средняя 
[Ac trans]
+12.3 +6.4 67 +13  1015.8  -0.4  755  290           
03 09.09.12 тихо ()   4000 м  местами туман поземный  5/0 средняя, верхняя 
[Ac trans|Ci fib]
+9.7 +7 83 +10  1015.4  -0.5  755  293           
06 09.09.12 230 (ЮЗ) 10 км    4/0 верхняя 
[Ci fib]
+17.8 +9 56 +18  1015  -0.1  755  284  +9.3         
09 09.09.12 230 (ЮЗ) 10 км    5/5 1200 м 
[Cu med, cong]
+22.3 +7.4 38 +22  1013.3  -1.6  753  279           
12 09.09.12 230 (ЮЗ) 10 км    6/5 1200 м средняя 
[Cu med, cong|Ac trans]
+21.9 +9.4 45 +22  1012  -1.1  753  279           
15 09.09.12 270 (З) 10 км    5/3 1000 м кучево-дожд., средняя 
[Cb calv|Ac trans]
+20 +11.6 58 +23  1012.1  753  280           
18 09.09.12 270 (З) 10 км    6/0 средняя 
[Ac trans]
+18.5 +13.2 71 +25  1013.6  1.3  754  282    +22.8       
21 09.09.12 010 (С) 10 км  {ливн. осадки}  6/1 1000 м кучево-дожд., средняя 
[Cb calv|Ac trans]
+14.5 +3.6 48 +14  1016.4  2.6  756  289           
00 10.09.12 310 (СЗ) 10 км  {ливн. осадки}  4/0 средняя 
[Ac trans]
+9.7 +4.6 71 +11  1018.6  757  294           
03 10.09.12 330 (СЗ) 10 км    1/0 средняя 
[Ac trans]
+9.2 +4.5 72 +9  1020.5  1.8  759  295           
06 10.09.12 360 (С) 10 км    ясно 
+13.8 +4.1 52 +13  1022  1.5  760  291  +9.1    0.0     
09 10.09.12 320 (СЗ) 10 км    ясно 
+17.4 +2.1 36 +17  1022.3  0.3  760  288           
12 10.09.12 340 (С) 10 км    ясно 
+19.8 +2.4 31 +20  1021.6  -0.5  760  285           
15 10.09.12 320 (СЗ) 10 км    ясно 
+18.9 +0.9 30 +20  1022.1  0.5  760  286           
18 10.09.12 350 (С) 10 км    ясно 
+13.7 +2 45 +14  1024.1  1.7  761  292    +20.1       
21 10.09.12 360 (С) 10 км    ясно 
+12.5 +0.9 45 +12  1024.9  0.6  762  293           
00 11.09.12 010 (С) 10 км    ясно 
+12.2 +0.9 46 +12  1025.2  0.3  762  294           
03 11.09.12 тихо ()   10 км    ясно 
+8 +1.4 63 +8  1026  0.6  763  298           
06 11.09.12 050 (СВ) 10 км    ясно 
+16.7 +5.8 48 +17  1026.4  0.6  763  289  +6         
09 11.09.12 340 (С) 10 км    ясно 
+19.4 +1.6 30 +20  1025.4  -1  762  287           
12 11.09.12 190 (Ю) 10 км    ясно 
+20.7 +1.1 27 +21  1023.6  -1.6  761  285           
15 11.09.12 160 (Ю) 10 км    ясно 
+19.1 +3.9 37 +20  1022.7  -0.9  760  286           
18 11.09.12 тихо ()   10 км    ясно 
+11.7 +5.9 68 +12  1023.4  0.4  761  293    +21.7       
21 11.09.12 тихо ()   10 км    ясно 
+9.6 +5.1 74 +10  1023.1  -0.2  761  295           
00 12.09.12 020 (С) 10 км    ясно 
+9.7 +4.6 71 +10  1022.4  -0.6  760  295           
03 12.09.12 070 (В) 10 км    ясно 
+7.7 +2.5 70 +7  1022.2  -0.2  760  297           
06 12.09.12 090 (В) 10 км    ясно 
+16.6 +3.6 42 +17  1022.4  0.3  760  288  +7.4         
09 12.09.12 110 (В) 10 км    1/0 верхняя 
[Ci fib]
+21.1 +2.4 29 +21  1020.5  -1.6  759  283           
12 12.09.12 090 (В) 10 км    4/0 верхняя 
[Ci fib]
+22.6 +1.7 25 +23  1018.2  -2  757  282           
15 12.09.12 080 (В) 10 км    4/0 верхняя 
[Ci fib]
+20.2 +3.2 32 +20  1017.1  -1.4  756  283           
18 12.09.12 060 (СВ) 10 км    4/0 верхняя 
[Ci fib]
+15.3 +2.7 43 +15  1017.4  0.1  756  288    +23       
21 12.09.12 080 (В) 10 км    5/0 верхняя 
[Ci fib]
+14.5 +2.6 45 +14  1017.1  -0.1  756  289           
00 13.09.12 070 (В) 10 км    4/0 верхняя 
[Ci fib]
+12.1 +3.5 56 +11  1016.2  -1  755  291           
03 13.09.12 070 (В) 10 км    4/0 верхняя 
[Ci fib]
+11 +4.1 62 +10  1016.3  0.1  755  292           
06 13.09.12 090 (В) 10 км    4/0 верхняя 
[Ci fib]
+17 +10.1 64 +18  1016.2  0.1  756  285  +11         
09 13.09.12 110 (В) 10  10 км    4/0 верхняя 
[Ci fib]
+24.1 +9.1 39 +24  1014.4  -1.5  754  278           
12 13.09.12 100 (В) 10 км    4/0 верхняя 
[Ci fib]
+26.1 +7.2 30 +26  1012.7  -1.5  753  276           
15 13.09.12 100 (В) 10 км    8/0 средняя, верхняя 
[Ac trans|Ci fib]
+23.7 +6.2 32 +24  1012.5  -0.1  753  278           
18 13.09.12 100 (В) 10 км    6/0 средняя 
[Ac trans]
+20.5 +7.6 43 +21  1013.4  0.7  754  281    +26.2       
21 13.09.12 090 (В) 10 км    8/0 средняя 
[Ac trans]
+18.1 +8.2 52 +18  1013.6  0.1  754  283           
00 14.09.12 080 (В) 10 км    8/0 средняя 
[Ac trans]
+15.6 +8.9 64 +16  1014.1  0.4  754  286           
03 14.09.12 080 (В) 10 км    8/3 1000 м кучево-дожд., средняя 
[Cb calv|Ac trans]
+15.2 +8.7 65 +14  1014.8  0.6  754  286           
06 14.09.12 080 (В) 10 км    8/1 1000 м кучево-дожд., средняя 
[Cb calv|Ac trans]
+18.1 +12.5 70 +22  1015.1  0.3  755  283  +15.2         
09 14.09.12 110 (В) 10 км    9/3 1000 м кучево-дожд., средняя, верхняя 
[Cb calv|Ac trans|Ci fib]
+24.3 +14.3 54 +32  1014.7  755  276           
12 14.09.12 120 (ЮВ) 10 км    6/1 1000 м кучево-дожд., средняя, верхняя 
[Cb calv|Ac trans|Ci fib]
+25.8 +13.1 45 +31  1013.7  -0.9  754  275           
15 14.09.12 090 (В) 10 км    5/0 средняя, верхняя 
[Ac trans|Ci fib]
+24.3 +13.5 51 +30  1013.4  -0.3  754  276           
18 14.09.12 090 (В) 10 км    4/0 верхняя 
[Ci fib]
+19.8 +13.3 66 +26  1013.8  0.3  754  281    +26.6       
21 14.09.12 080 (В) 10 км    4/0 верхняя 
[Ci fib]
+16.9 +12.5 75 +22  1013.8  -0.1  754  284           
00 15.09.12 080 (В) 10 км    ясно 
+15.3 +12.3 82 +20  1013.8  -0.1  754  285           
03 15.09.12 070 (В) 4000 м  местами туман поземный  3/0 средняя 
[Ac trans]
+13.8 +13.1 96 +20  1014  0.2  754  287           
06 15.09.12 210 (ЮЗ) 4000 м  дымка  6/0 верхняя 
[Ci]
+20.4 +15.2 72 +29  1014.5  0.7  754  280  +13.8         
09 15.09.12 240 (ЮЗ) 10 км    8/0 средняя, верхняя 
[Ac trans|Ci fib]
+25.6 +13.5 47 +32  1014  -0.3  754  275           
12 15.09.12 250 (З) 10 км    6/0 верхняя 
[Ci fib]
+27.5 +10.4 34 +29  1013  -1  753  274           
15 15.09.12 280 (З) 10 км    6/0 средняя, верхняя 
[Ac trans|Ci fib]
+25.5 +13.1 46 +31  1012.7  -0.2  753  275           
18 15.09.12 290 (З) 10 км    8/0 средняя, верхняя 
[Ac trans|Ci fib]
+21.1 +14.6 66 +29  1013.5  0.6  754  279    +28.1       
21 15.09.12 300 (СЗ) 10 км    ясно 
+17.6 +12.1 70 +22  1013.1  -0.5  753  283           
00 16.09.12 тихо ()   10 км    ясно 
+15.6 +12.4 81 +20  1013.3  0.2  753  285           
03 16.09.12 тихо ()   4000 м  местами туман поземный  4/0 средняя, верхняя 
[Ac trans|Ci fib]
+14.3 +14.2 99 +21  1013.7  0.1  754  286           
06 16.09.12 210 (ЮЗ) 10 км    9/0 средняя, верхняя 
[Ac trans|Ci fib]
+20.6 +16.3 76 +31  1013.6  754  279  +14.1         
09 16.09.12 220 (ЮЗ) 10 км    8/0 средняя, верхняя 
[Ac trans|Ci fib]
+24.3 +14.8 55 +33  1012.7  -0.7  753  276           
12 16.09.12 280 (З) 10 км    9/0 средняя, верхняя 
[Ac trans|Ci fib]
+26.1 +12.8 44 +31  1011.6  -0.9  752  274           
15 16.09.12 260 (З) 10 км    8/0 средняя 
[Ac trans]
+24.4 +13.5 51 +31  1011.8  752  276           
18 16.09.12 330 (СЗ) 10 км    4/0 средняя 
[Ac trans]
+21.3 +13.9 63 +28  1013.4  1.5  754  279    +26.6       
21 16.09.12 010 (С) 10 км    5/0 средняя, верхняя 
[Ac trans|Ci fib]
+19.2 +13 67 +25  1014.5  754  281           
00 17.09.12 020 (С) 10 км    ясно 
+16.2 +9.7 65 +17  1015.6  755  286           
03 17.09.12 010 (С) 10 км    1/0 средняя 
[Ac trans]
+13.7 +10.4 80 +15  1016.8  756  288           
06 17.09.12 060 (СВ) 10 км    4/0 средняя, верхняя 
[Ac trans|Ci fib]
+17.7 +9.9 60 +19  1017.8  757  285  +13.5         
09 17.09.12 040 (СВ) 10 км    3/0 средняя 
[Ac trans]
+22.1 +7.7 40 +22  1017.5  -0.1  757  281           
12 17.09.12 070 (В) 10 км    5/0 средняя, верхняя 
[Ac trans|Ci fib]
+23.8 +4.9 29 +24  1016.5  -0.8  756  279           
15 17.09.12 050 (СВ) 10 км    5/0 средняя, верхняя 
[Ac trans|Ci fib]
+20.9 +6.8 40 +21  1016.7  0.1  756  282           
18 17.09.12 040 (СВ) 10 км    4/0 средняя, верхняя 
[Ac trans|Ci fib]
+18.8 +6.5 45 +19  1017.6  0.6  757  284    +24.1       
21 17.09.12 050 (СВ) 10 км    ясно 
+14.9 +6.7 58 +14  1018.1  0.3  757  288           
00 18.09.12 070 (В) 10 км    3/0 средняя 
[Ac trans]
+16 +6.5 53 +16  1018.2  757  287           
03 18.09.12 070 (В) 10 км    5/0 средняя, верхняя 
[Ac trans|Ci fib]
+12.7 +7.2 69 +12  1018.9  0.5  757  290           
06 18.09.12 070 (В) 10 км    8/0 верхняя 
[Ci fib]
+15.7 +7.9 60 +16  1019.6  0.8  758  288  +12.2         
09 18.09.12 100 (В) 10 км    4/0 верхняя 
[Ci fib]
+22.4 +7 37 +22  1018.7  -0.7  758  281           
12 18.09.12 100 (В) 10 км    4/0 верхняя 
[Ci fib]
+24 +6.2 32 +24  1017.4  -1.2  757  279           
15 18.09.12 070 (В) 10 км    3/0 верхняя 
[Ci fib]
+21.1 +5.8 37 +21  1017.1  -0.4  756  282           
18 18.09.12 080 (В) 10 км    ясно 
+18.6 +6.3 45 +19  1017.8  0.6  757  284    +24.3       
21 18.09.12 080 (В) 10 км    ясно 
+15.1 +6.7 57 +15  1017.9  757  288           
00 19.09.12 070 (В) 10 км    ясно 
+13.5 +5.9 60 +13  1018  757  290           
03 19.09.12 070 (В) 10 км    3/0 средняя 
[Ac trans]
+13.3 +4.8 56 +13  1017.9  -0.1  757  290           
06 19.09.12 090 (В) 10 км    6/1 1000 м средняя, верхняя 
[Cu med, cong|Ac trans|Ci fib]
+17.3 +7.5 53 +17  1017.6  -0.1  757  285  +12.7         
09 19.09.12 110 (В) 10 км    3/0 средняя 
[Ac trans]
+23.3 +7.3 36 +23  1016.6  -0.9  756  279           
12 19.09.12 090 (В) 10 км    4/0 верхняя 
[Ci fib]
+24.8 +3.2 25 +25  1015.5  -0.9  755  278           
15 19.09.12 080 (В) 10 км    3/0 верхняя 
[Ci fib]
+22.1 +1.7 26 +22  1015.1  -0.4  755  281           
18 19.09.12 080 (В) 10 км    1/0 средняя 
[Ac trans]
+18.4 +2.5 35 +19  1015.7  0.6  755  285    +25.2       
21 19.09.12 080 (В) 10 км    ясно 
+16.5 +0.9 35 +16  1015.5  -0.4  755  287           
00 20.09.12 070 (В) 10 км    4/0 средняя 
[Ac trans]
+15 +1.8 41 +14  1014.9  -0.6  755  288           
03 20.09.12 070 (В) 10 км    3/0 средняя 
[Ac trans]
+13.8 +4 52 +13  1015.3  0.3  755  289           
06 20.09.12 080 (В) 10 км    3/0 средняя 
[Ac trans]
+17.5 +6.6 49 +17  1015.6  0.5  755  285  +13.7         
09 20.09.12 100 (В) 10 км    4/0 средняя, верхняя 
[Ac trans|Ci fib]
+23.3 +5.3 31 +23  1014.7  -0.7  755  279           
12 20.09.12 090 (В) 10 км    5/0 верхняя 
[Ci fib]
+24.5 +4.3 27 +25  1013.8  -0.8  754  278           
15 20.09.12 080 (В) 10 км    8/0 средняя, верхняя 
[Ac trans|Ci fib]
+22.1 +6.3 36 +22  1013.6  -0.4  754  280           
18 20.09.12 080 (В) 10 км    6/0 средняя, верхняя 
[Ac trans|Ci fib]
+20.5 +2.8 31 +21  1013.5  754  282    +25.2       
21 20.09.12 070 (В) 10 км    5/0 средняя 
[Ac trans]
+18.9 +5.5 41 +19  1012.9  -0.7  753  283           
00 21.09.12 080 (В) 10 км    6/0 средняя 
[Ac trans]
+17.2 +6.2 48 +17  1012.8  -0.1  753  284           
03 21.09.12 080 (В) 10 км    6/0 средняя 
[Ac trans]
+16.2 +9 62 +16  1013.1  0.3  753  285           
06 21.09.12 080 (В) 10 км    1/0 средняя 
[Ac trans]
+18.5 +11 62 +21  1013.4  0.3  753  282  +15.8         
09 21.09.12 100 (В) 10 км    1/0 средняя 
[Ac trans]
+24.8 +13.7 50 +31  1012.5  -0.6  753  275           
12 21.09.12 100 (В) 10 км    3/3 1000 м 
[Cu hum]
+28.7 +12 36 +33  1011.1  -1.1  752  272           
15 21.09.12 100 (В) 10 км    9/5 1000 м кучево-дожд., средняя 
[Cb calv|Ac trans]
+25.1 +13.2 48 +31  1011.3  0.1  752  275           
18 21.09.12 тихо ()   10 км  в посл. час гроза{ливн. осадки}  10/5 1000 м кучево-дожд., средняя 
[Cb calv|Ac und]
+19.7 +15.3 76 +29  1013.3  1.8  753  280    +29.1       
21 21.09.12 020 (С) 10 км    10/4 1000 м кучево-дожд., средняя 
[Cb calv|Ac und]
+19.9 +14.8 72 +29  1012.5  -0.8  753  280           
00 22.09.12 070 (В) 10 км    10/0 средняя 
[Ac und]
+18.7 +12.5 67 +24  1011.9  -0.6  752  281           
03 22.09.12 070 (В) 10 км    9/3 1000 м кучево-дожд., средняя 
[Cb calv|Ac trans]
+17.6 +11.4 67 +20  1012.5  0.5  753  283           
06 22.09.12 090 (В) 10 км    5/1 1000 м кучево-дожд., средняя, верхняя 
[Cb calv|Ac trans|Ci fib]
+19.3 +11.9 62 +23  1012.8  0.4  753  281  +16.9    0.3     
09 22.09.12 090 (В) 10 км    5/0 средняя, верхняя 
[Ac trans|Ci fib]
+22.5 +13.3 56 +28  1011.6  -1.2  752  277           
12 22.09.12 100 (В) 10 км  гроза без осадков  9/3 1000 м кучево-дожд., средняя 
[Cb cap|Ac trans]
+22.7 +14 58 +30  1011.1  -0.5  752  277           
15 22.09.12 030 (СВ) 4000 м  слаб. ливневой дождь, в посл. час гроза  9/8 300 м кучево-дожд., средняя 
[Cb calv|Ac trans]
+18.6 +17.9 96 +34  1012  0.8  752  280           
18 22.09.12 100 (В) 4000 м  дымка{гроза, ливн. осадки}  9/5 1000 м кучево-дожд., средняя 
[Cb calv|Ac trans]
+17.7 +17.4 98 +31  1012  0.1  752  281    +23.2     
21 22.09.12 080 (В) 4000 м  дымка  9/6 800 м кучево-дожд., средняя 
[Cb calv|Ac trans]
+17 +16.7 98 +29  1012.1  -0.1  752  282           
00 23.09.12 190 (Ю) 2500 м  местами туман поземный  9/6 150 м средняя 
[St|Ac trans]
+17.4 +17.1 98 +30  1011.7  -0.4  752  281           
03 23.09.12 240 (ЮЗ) 2000 м  дымка  10/6 150 м средняя 
[St|Ac und]
+16.9 +16.6 98 +29  1012.5  0.8  753  282           
18 23.09.12 290 (З) 10 км    6/3 300 м средняя 
[Sc|Ac trans]
+17.8 +12.2 70 +22  1014.7  1.5  754  283    +22.8       
21 23.09.12 270 (З) 10 км    5/3 300 м средняя 
[Sc|Ac trans]
+16.1 +12.4 79 +21  1014.8  0.1  755  285           
00 24.09.12 290 (З) 4000 м  дымка  4/0 средняя 
[Ac trans]
+14.4 +11.4 82 +18  1015.6  0.6  755  287           
03 24.09.12 280 (З) 4000 м  дымка  3/0 верхняя 
[Ci fib]
+12.8 +9.8 82 +14  1016.7  756  289           
06 24.09.12 260 (З) 10 км    9/0 средняя, верхняя 
[Ac trans|Ci fib]
+16.8 +6.6 51 +18  1017.2  0.6  756  286  +11.4         
09 24.09.12 270 (З) 10 км    8/0 средняя 
[Ac trans]
+20.2 +2.4 31 +20  1017  756  283           
12 24.09.12 270 (З) 10 км    9/1 1000 м кучево-дожд., средняя 
[Cb calv|Ac trans]
+18.7 +4.5 39 +19  1016.6  -0.4  756  284           
15 24.09.12 260 (З) 10 км    9/0 верхняя 
[Ci ing]
+17.3 +7.1 51 +19  1015.6  -0.9  755  285           
18 24.09.12 тихо ()   10 км    6/0 средняя 
[Ac trans]
+13.9 +8.5 70 +14  1015.2  -0.3  755  288    +20.9       
21 24.09.12 230 (ЮЗ) 10 км    4/0 средняя 
[Ac trans]
+13.1 +6.4 64 +14  1013.4  -1.8  753  289           
00 25.09.12 240 (ЮЗ) 10 км    5/0 средняя 
[Ac trans]
+13.5 +7.9 69 +13  1013.1  -0.3  753  288           
03 25.09.12 240 (ЮЗ) 4000 м  дымка  6/0 средняя 
[Ac trans]
+14.6 +11.4 81 +18  1012.4  -0.7  753  286           
06 25.09.12 240 (ЮЗ) 10 км    8/5 360 м кучево-дожд., средняя 
[Cb calv|Ac trans]
+18 +14.6 81 +27  1012.6  0.2  753  282  +12.8         
09 25.09.12 260 (З) 10 км    4/4 900 м 
[Cu med, cong]
+22.9 +12.4 52 +27  1012.5  753  278           
12 25.09.12 260 (З) 10 км    5/5 1000 м 
[Cu med, cong]
+23.3 +12.7 51 +28  1012  -0.5  753  277           
15 25.09.12 270 (З) 10 км    ясно 
+20.5 +11.7 57 +24  1012.2  0.1  753  280           
18 25.09.12 310 (СЗ) 10 км    3/0 верхняя 
[Ci fib]
+16.9 +10.7 67 +19  1013.3  753  284    +23.6       
21 25.09.12 тихо ()   10 км    ясно 
+13.4 +10.9 85 +16  1013.6  0.1  754  287           
00 26.09.12 тихо ()   4000 м  дымка  ясно 
+12.8 +9 78 +13  1014.2  0.6  754  289           
03 26.09.12 тихо ()   4000 м  дымка  9/0 средняя, верхняя 
[Ac trans|Ci fib]
+13 +11.5 91 +16  1014.9  0.6  755  288           
06 26.09.12 100 (В) 4000 м  дымка  3/0 средняя 
[Ac trans]
+18 +12.9 72 +24  1015.8  755  283  +11.6         
09 26.09.12 220 (ЮЗ) 10 км    5/0 средняя, верхняя 
[Ac trans|Ci fib]
+23.9 +12.1 48 +28  1015.7  755  278           
12 26.09.12 200 (Ю) 10 км    3/3 1000 м средняя 
[Cu hum|Ac trans]
+25.3 +11.6 42 +28  1014.9  -0.7  755  276           
15 26.09.12 020 (С) 10 км    6/1 1000 м кучево-дожд., средняя, верхняя 
[Cb calv|Ac trans|Ci fib]
+23 +12.1 50 +27  1015  755  278           
18 26.09.12 060 (СВ) 10 км    8/0 средняя 
[Ac trans]
+18.9 +11.9 64 +23  1015.8  0.6  755  282    +26.2       
21 26.09.12 090 (В) 10 км    8/0 средняя 
[Ac trans]
+17.1 +11.2 68 +21  1016  0.2  755  284           
00 27.09.12 100 (В) 10 км  {ливн. осадки}  10/4 900 м кучево-дожд., средняя 
[Cb calv|Ac und]
+17.6 +12.3 71 +22  1016.4  0.3  756  284           
03 27.09.12 080 (В) 10 км  в посл. час ливневой дождь  10/4 1000 м кучево-дожд., средняя 
[Cb calv|Ac und]
+16.2 +11.9 76 +21  1017.1  0.6  756  285           
06 27.09.12 050 (СВ) 10 км  {ливн. осадки}  8/0 средняя 
[Ac trans]
+18.8 +12 65 +24  1018.7  1.6  757  283  +16.1    0.0     
09 27.09.12 080 (В) 10 км    8/0 средняя, верхняя 
[Ac trans|Ci fib]
+24 +13.4 52 +30  1018.8  0.3  758  278           
12 27.09.12 220 (ЮЗ) 10 км    4/1 1000 м средняя 
[Cu med, cong|Ac trans]
+26.4 +13.4 45 +32  1018.6  -0.1  758  276           
15 27.09.12 220 (ЮЗ) 10 км    5/0 средняя, верхняя 
[Ac trans|Ci fib]
+23 +15.3 62 +32  1019.1  0.3  758  278           
18 27.09.12 360 (С) 4000 м  дым  3/0 верхняя 
[Ci fib]
+19.8 +16 79 +31  1020.7  1.5  759  282    +27.5       
21 27.09.12 тихо ()   4000 м  дымка  ясно 
+16.9 +15.4 91 +26  1021.2  0.4  759  285           
00 28.09.12 070 (В) 4000 м  дымка  ясно 
+15.5 +14.4 93 +23  1021.4  0.2  759  287           
03 28.09.12 080 (В) 4000 м  дымка  ясно 
+15.4 +13.9 91 +23  1021.5  0.1  759  287           
06 28.09.12 110 (В) 10 км    5/0 средняя, верхняя 
[Ac trans|Ci fib]
+19.9 +15.3 75 +30  1022.2  0.7  760  282  +14.9         
09 28.09.12 060 (СВ) 10 км    6/1 1000 м средняя, верхняя 
[Cu hum|Ac trans|Ci fib]
+26.1 +15.4 52 +35  1021.4  -0.5  760  276           
12 28.09.12 140 (ЮВ) 10 км    5/3 1000 м средняя 
[Cu med, cong|Ac trans]
+29.4 +10.4 31 +31  1019.6  -1.7  758  274           
15 28.09.12 тихо ()   10 км    1/0 средняя 
[Ac trans]
+24.7 +11.2 43 +27  1018.9  -0.7  758  278           
18 28.09.12 060 (СВ) 10 км    5/0 средняя 
[Ac trans]
+21.2 +11.4 54 +24  1019.7  0.7  758  281    +29.8       
21 28.09.12 150 (ЮВ) 10 км    3/0 средняя 
[Ac trans]
+19.3 +11.3 60 +24  1019.8  758  283           
00 29.09.12 070 (В) 10 км    3/0 средняя 
[Ac trans]
+16 +11.3 74 +20  1019.8  -0.1  758  286           
03 29.09.12 040 (СВ) 10 км    3/0 средняя 
[Ac trans]
+14.7 +10.7 77 +17  1019.8  758  288           
06 29.09.12 300 (СЗ) 10 км    1/0 верхняя 
[Ci fib]
+19.3 +11.7 61 +23  1020.7  0.9  759  283  +13.3         
09 29.09.12 300 (СЗ) 10 км    1/0 верхняя 
[Ci fib]
+25.7 +10.1 37 +27  1020.4  759  278           
12 29.09.12 320 (СЗ) 10 км    5/0 верхняя 
[Ci fib]
+27.8 +9.8 32 +29  1019.2  -1.1  758  276           
15 29.09.12 280 (З) 10 км    9/0 средняя, верхняя 
[Ac trans|Ci fib]
+23.4 +13.5 54 +29  1019.3  758  279           
18 29.09.12 350 (С) 10 км  в посл. час ливневой дождь  10/3 1000 м кучево-дожд., средняя 
[Cb calv|Ac und]
+22.2 +13.6 58 +28  1020.2  0.8  759  280    +28.1       
21 29.09.12 010 (С) 10 км    8/1 1000 м кучево-дожд., средняя 
[Cb calv|Ac trans]
+19.1 +13.4 70 +26  1020.6  0.3  759  283           
00 30.09.12 360 (С) 10 км    6/0 средняя 
[Ac trans]
+17.2 +12 71 +22  1020.9  0.1  759  285           
06 30.09.12 050 (СВ) 10 км    3/0 верхняя 
[Ci fib]
+18.6 +12.3 67 +23  1022.5  760  284  +14.6    0.0     
09 30.09.12 330 (СЗ) 10 км    3/3 1000 м 
[Cu hum]
+23.5 +11.6 47 +27  1021.8  -0.5  760  280           
12 30.09.12 240 (ЮЗ) 10 км    8/0 средняя, верхняя 
[Ac trans|Ci fib]
+24.4 +8.6 37 +24  1020.9  -0.9  759  279           
15 30.09.12 280 (З) 10 км    8/0 средняя, верхняя 
[Ac trans|Ci fib]
+20.2 +8.9 48 +20  1020.8  -0.1  759  283           
18 30.09.12 290 (З) 10 км    6/0 средняя, верхняя 
[Ac trans|Ci fib]
+18.7 +12.9 69 +24  1021.2  0.3  759  284    +24.7       
21 30.09.12 280 (З) 10 км    8/0 средняя, верхняя 
[Ac trans|Ci fib]
+18.1 +12.7 71 +24  1021.1  -0.1  759  284           
00 01.10.12 270 (З) 10 км    5/0 средняя 
[Ac trans]
+17.9 +14.3 79 +25  1020.8  -0.3  759  284           
03 01.10.12 270 (З) 10 км    8/0 средняя 
[Ac trans]
+17.8 +13 73 +23  1021.7  0.8  760  285           
06 01.10.12 360 (С) 10 км    4/0 средняя 
[Ac trans]
+19.8 +10.9 56 +23  1023.4  1.6  761  284  +15.2         
09 01.10.12 350 (С) 10 км    4/0 средняя, верхняя 
[Ac trans|Ci fib]
+23.1 +6.2 34 +23  1023.9  0.6  761  282           
12 01.10.12 340 (С) 10 км    ясно 
+25 +3.5 25 +25  1023.4  -0.5  761  280           
15 01.10.12 010 (С) 10 км    3/0 верхняя 
[Ci fib]
+22 +0.5 24 +22  1024.4  0.9  762  284           
18 01.10.12 020 (С) 10 км    3/0 верхняя 
[Ci fib]
+18.4 -0.8 27 +19  1025.4  0.8  762  288    +25.3       
21 01.10.12 050 (СВ) 10 км    ясно 
+10.9 +2 54 +11  1026.5  0.8  763  295           
00 02.10.12 070 (В) 10 км    4/0 верхняя 
[Ci fib]
+10.6 +2.4 57 +10  1026.8  0.3  763  296           
03 02.10.12 060 (СВ) 10 км    3/0 верхняя 
[Ci fib]
+9.7 +2.3 60 +8  1027.2  0.3  764  297           
06 02.10.12 080 (В) 10 км    4/0 верхняя 
[Ci fib]
+14.2 +4.3 51 +14  1027.4  0.4  764  292  +8.7         
09 02.10.12 090 (В) 10 км    3/0 верхняя 
[Ci fib]
+20.6 +3.3 32 +21  1026.2  -1  763  285           
12 02.10.12 110 (В) 10 км    ясно 
+22.3 +1.2 25 +22  1024.8  -1.4  762  284           
15 02.10.12 060 (СВ) 10 км    ясно 
+16.7 +2.1 37 +17  1024.5  -0.3  762  289           
18 02.10.12 080 (В) 10 км    ясно 
+16.6 +2.1 38 +16  1024.6  0.1  762  289    +22.8       
Время (UTC), дата Ветер
(°,м/с) 
Видим.   Явления Облачность Т
(°С)
Тd
(°С)
f(%) Тe
(°С)
Pmin
(гПа)
dP
(гПа)
Po
(мм)
O2
(г/м3)
Тmin Tmax R s Состояние
почвы